| time (UTC) | temp F | wind direction | speed MPH | gust MPH | rain 1hr in | rain 24hr in | rain mn in | humidity % | barometer mb |
| 20260507060513 | 47 | 14 | 0.0 | 4.0 | 0.00 | 0.00 | 0.00 | 92 | 1012.1 |
| 20260507060205 | 47 | 0 | 0.0 | 3.0 | 0.00 | 0.47 | 0.00 | 92 | 1013.3 |
| 20260507055704 | 47 | 346 | 1.0 | 5.0 | 0.00 | 0.48 | 0.00 | 93 | 1013.3 |
| 20260507055512 | 47 | 358 | 0.0 | 4.0 | 0.00 | 0.00 | 0.00 | 93 | 1012.1 |
| 20260507055203 | 47 | 11 | 0.0 | 3.0 | 0.00 | 0.48 | 0.00 | 93 | 1013.3 |
| 20260507054703 | 47 | 343 | 0.0 | 0.0 | 0.00 | 0.49 | 0.00 | 93 | 1013.2 |
| 20260507053704 | 47 | 340 | 0.0 | 0.0 | 0.00 | 0.50 | 0.00 | 93 | 1013.1 |
| 20260507053512 | 47 | 340 | 0.0 | 0.0 | 0.00 | 0.00 | 0.00 | 93 | 1011.9 |
| 20260507053204 | 47 | 340 | 0.0 | 0.0 | 0.00 | 0.50 | 0.00 | 93 | 1013.0 |
| 20260507052704 | 47 | 340 | 0.0 | 1.0 | 0.00 | 0.50 | 0.00 | 93 | 1013.0 |
| 20260507052512 | 47 | 340 | 0.0 | 3.0 | 0.00 | 0.00 | 0.00 | 93 | 1011.8 |
| 20260507052204 | 47 | 340 | 0.0 | 2.0 | 0.00 | 0.51 | 0.00 | 93 | 1012.9 |
| 20260507051704 | 47 | 330 | 0.0 | 0.0 | 0.00 | 0.51 | 0.00 | 93 | 1012.9 |
| 20260507051512 | 47 | 330 | 0.0 | 0.0 | 0.00 | 0.00 | 0.00 | 93 | 1011.8 |
| 20260507050706 | 46 | 340 | 0.0 | 0.0 | 0.00 | 0.52 | 0.00 | 93 | 1012.8 |
| 20260507050513 | 47 | 340 | 0.0 | 0.0 | 0.00 | 0.00 | 0.00 | 93 | 1011.7 |
| 20260507050205 | 46 | 340 | 0.0 | 0.0 | 0.00 | 0.53 | 0.00 | 93 | 1012.7 |
| 20260507045705 | 46 | 340 | 0.0 | 0.0 | 0.00 | 0.53 | 0.00 | 93 | 1012.7 |
| 20260507045513 | 46 | 340 | 0.0 | 0.0 | 0.00 | 0.00 | 0.00 | 93 | 1011.5 |
| 20260507045206 | 46 | 340 | 0.0 | 0.0 | 0.00 | 0.54 | 0.00 | 93 | 1012.6 |
| 20260507044706 | 46 | 340 | 0.0 | 0.0 | 0.00 | 0.54 | 0.00 | 93 | 1012.6 |
| 20260507044512 | 46 | 340 | 0.0 | 0.0 | 0.00 | 0.00 | 0.00 | 93 | 1011.4 |
| 20260507044205 | 46 | 340 | 0.0 | 0.0 | 0.00 | 0.54 | 0.00 | 93 | 1012.6 |
| 20260507043706 | 46 | 340 | 0.0 | 0.0 | 0.00 | 0.55 | 0.00 | 93 | 1012.5 |
| 20260507043512 | 46 | 340 | 0.0 | 0.0 | 0.00 | 0.00 | 0.00 | 93 | 1011.3 |
| 20260507043206 | 46 | 340 | 0.0 | 0.0 | 0.00 | 0.56 | 0.00 | 93 | 1012.5 |
| 20260507042706 | 46 | 340 | 0.0 | 0.0 | 0.00 | 0.56 | 0.00 | 93 | 1012.5 |
| 20260507042512 | 46 | 340 | 0.0 | 0.0 | 0.00 | 0.00 | 0.00 | 93 | 1011.2 |
| 20260507042206 | 46 | 340 | 0.0 | 0.0 | 0.00 | 0.57 | 0.00 | 93 | 1012.4 |
| 20260507041705 | 46 | 340 | 0.0 | 0.0 | 0.00 | 0.57 | 0.00 | 93 | 1012.4 |
| 20260507041512 | 46 | 340 | 0.0 | 0.0 | 0.00 | 0.00 | 0.00 | 93 | 1011.2 |
| 20260507041205 | 46 | 340 | 0.0 | 0.0 | 0.00 | 0.57 | 0.00 | 93 | 1012.3 |
| 20260507040706 | 46 | 340 | 0.0 | 0.0 | 0.00 | 0.58 | 0.00 | 93 | 1012.3 |
| 20260507040512 | 46 | 340 | 0.0 | 0.0 | 0.00 | 0.00 | 0.00 | 93 | 1011.1 |
| 20260507040206 | 46 | 340 | 0.0 | 0.0 | 0.00 | 0.58 | 0.00 | 93 | 1012.3 |
| 20260507035706 | 46 | 340 | 0.0 | 0.0 | 0.00 | 0.59 | 0.00 | 93 | 1012.3 |
| 20260507035205 | 46 | 340 | 0.0 | 0.0 | 0.00 | 0.59 | 0.00 | 93 | 1012.2 |
| 20260507034706 | 46 | 340 | 0.0 | 0.0 | 0.00 | 0.60 | 0.00 | 93 | 1012.1 |
| 20260507034512 | 46 | 340 | 0.0 | 0.0 | 0.00 | 0.00 | 0.00 | 93 | 1011.0 |
| 20260507033706 | 46 | 340 | 0.0 | 0.0 | 0.00 | 0.61 | 0.00 | 93 | 1012.1 |
| 20260507033512 | 46 | 340 | 0.0 | 0.0 | 0.00 | 0.00 | 0.00 | 93 | 1010.9 |
| 20260507033206 | 46 | 340 | 0.0 | 0.0 | 0.00 | 0.61 | 0.00 | 93 | 1012.0 |
| 20260507031705 | 46 | 340 | 0.0 | 0.0 | 0.00 | 0.63 | 0.00 | 93 | 1011.9 |
| 20260507031512 | 46 | 340 | 0.0 | 0.0 | 0.00 | 0.00 | 0.00 | 93 | 1010.7 |
| 20260507031206 | 46 | 340 | 0.0 | 0.0 | 0.00 | 0.64 | 0.00 | 93 | 1011.9 |
| 20260507030705 | 45 | 340 | 0.0 | 0.0 | 0.00 | 0.65 | 0.00 | 93 | 1011.9 |
| 20260507030513 | 45 | 340 | 0.0 | 0.0 | 0.00 | 0.00 | 0.00 | 93 | 1010.7 |
| 20260507030205 | 45 | 340 | 0.0 | 0.0 | 0.00 | 0.65 | 0.00 | 92 | 1011.9 |
| 20260507025705 | 45 | 340 | 0.0 | 0.0 | 0.00 | 0.65 | 0.00 | 92 | 1011.8 |
| 20260507025206 | 45 | 340 | 0.0 | 0.0 | 0.00 | 0.66 | 0.00 | 92 | 1011.8 |
| 20260507024705 | 46 | 340 | 0.0 | 0.0 | 0.00 | 0.67 | 0.00 | 92 | 1011.7 |
| 20260507024205 | 46 | 340 | 0.0 | 0.0 | 0.00 | 0.67 | 0.00 | 92 | 1011.6 |
| 20260507023706 | 46 | 340 | 0.0 | 0.0 | 0.00 | 0.68 | 0.00 | 92 | 1011.6 |
| 20260507023512 | 46 | 340 | 0.0 | 0.0 | 0.00 | 0.00 | 0.00 | 92 | 1010.4 |
| 20260507023206 | 46 | 340 | 0.0 | 0.0 | 0.00 | 0.69 | 0.00 | 92 | 1011.5 |
| 20260507022705 | 46 | 340 | 0.0 | 0.0 | 0.00 | 0.69 | 0.00 | 92 | 1011.5 |
| 20260507022512 | 47 | 340 | 0.0 | 0.0 | 0.00 | 0.00 | 0.00 | 92 | 1010.4 |
| 20260507021512 | 47 | 340 | 0.0 | 0.0 | 0.00 | 0.00 | 0.00 | 92 | 1010.3 |
| 20260507021206 | 47 | 340 | 0.0 | 0.0 | 0.00 | 0.71 | 0.00 | 92 | 1011.5 |
| 20260507020705 | 47 | 340 | 0.0 | 0.0 | 0.00 | 0.71 | 0.00 | 92 | 1011.5 |
| 20260507020512 | 47 | 340 | 0.0 | 0.0 | 0.00 | 0.00 | 0.00 | 92 | 1010.3 |
| 20260507020205 | 47 | 340 | 0.0 | 0.0 | 0.00 | 0.72 | 0.00 | 92 | 1011.4 |
| 20260507015705 | 47 | 340 | 0.0 | 0.0 | 0.00 | 0.72 | 0.00 | 92 | 1011.5 |
| 20260507015512 | 47 | 340 | 0.0 | 0.0 | 0.00 | 0.00 | 0.00 | 92 | 1010.3 |
| 20260507015205 | 47 | 340 | 0.0 | 0.0 | 0.00 | 0.72 | 0.00 | 92 | 1011.5 |
| 20260507014706 | 47 | 340 | 0.0 | 0.0 | 0.00 | 0.73 | 0.00 | 92 | 1011.4 |
| 20260507014512 | 47 | 340 | 0.0 | 0.0 | 0.00 | 0.00 | 0.00 | 92 | 1010.2 |
| 20260507014205 | 47 | 340 | 0.0 | 0.0 | 0.00 | 0.73 | 0.00 | 92 | 1011.3 |
| 20260507013705 | 47 | 340 | 0.0 | 0.0 | 0.00 | 0.74 | 0.00 | 92 | 1011.3 |
| 20260507013512 | 47 | 340 | 0.0 | 0.0 | 0.00 | 0.00 | 0.00 | 92 | 1010.2 |
| 20260507013206 | 48 | 340 | 0.0 | 0.0 | 0.00 | 0.75 | 0.00 | 92 | 1011.3 |
| 20260507012706 | 48 | 340 | 0.0 | 0.0 | 0.00 | 0.75 | 0.00 | 92 | 1011.2 |
| 20260507012512 | 48 | 340 | 0.0 | 0.0 | 0.00 | 0.00 | 0.00 | 92 | 1010.0 |
| 20260507012205 | 48 | 340 | 0.0 | 0.0 | 0.00 | 0.76 | 0.00 | 92 | 1011.2 |
| 20260507011706 | 48 | 340 | 0.0 | 0.0 | 0.00 | 0.76 | 0.00 | 92 | 1011.1 |
| 20260507011512 | 48 | 340 | 0.0 | 0.0 | 0.00 | 0.00 | 0.00 | 92 | 1010.0 |
| 20260507011206 | 48 | 340 | 0.0 | 0.0 | 0.00 | 0.76 | 0.00 | 92 | 1011.1 |
| 20260507010705 | 48 | 340 | 0.0 | 0.0 | 0.00 | 0.76 | 0.00 | 92 | 1011.1 |
| 20260507010513 | 48 | 340 | 0.0 | 0.0 | 0.00 | 0.00 | 0.00 | 92 | 1010.0 |
| 20260507010205 | 48 | 340 | 0.0 | 0.0 | 0.00 | 0.76 | 0.00 | 92 | 1011.1 |
| 20260507005705 | 48 | 340 | 0.0 | 0.0 | 0.00 | 0.77 | 0.00 | 92 | 1011.1 |
| 20260507005512 | 48 | 340 | 0.0 | 0.0 | 0.00 | 0.00 | 0.00 | 92 | 1009.9 |
| 20260507005206 | 48 | 340 | 0.0 | 0.0 | 0.00 | 0.77 | 0.00 | 92 | 1011.0 |
| 20260507004705 | 48 | 340 | 0.0 | 0.0 | 0.00 | 0.77 | 0.00 | 92 | 1011.1 |
| 20260507004206 | 48 | 340 | 0.0 | 0.0 | 0.00 | 0.77 | 0.00 | 92 | 1011.0 |
| 20260507003512 | 48 | 340 | 0.0 | 0.0 | 0.00 | 0.00 | 0.00 | 92 | 1009.9 |
| 20260507003205 | 48 | 340 | 0.0 | 0.0 | 0.00 | 0.78 | 0.00 | 92 | 1011.0 |
| 20260507002705 | 48 | 340 | 0.0 | 0.0 | 0.00 | 0.78 | 0.00 | 92 | 1011.0 |
| 20260507002512 | 48 | 340 | 0.0 | 0.0 | 0.00 | 0.00 | 0.00 | 92 | 1009.7 |
| 20260507001706 | 48 | 340 | 0.0 | 0.0 | 0.00 | 0.78 | 0.00 | 92 | 1010.9 |
| 20260507001205 | 48 | 340 | 0.0 | 0.0 | 0.00 | 0.78 | 0.00 | 92 | 1010.9 |
| 20260507000705 | 48 | 340 | 0.0 | 0.0 | 0.00 | 0.78 | 0.00 | 92 | 1010.8 |
| 20260507000512 | 48 | 340 | 0.0 | 0.0 | 0.00 | 0.00 | 0.00 | 92 | 1009.7 |
| 20260506235705 | 48 | 340 | 0.0 | 0.0 | 0.00 | 0.78 | 0.00 | 92 | 1010.9 |
| 20260506235205 | 48 | 340 | 0.0 | 0.0 | 0.00 | 0.78 | 0.00 | 92 | 1011.0 |
| 20260506234705 | 48 | 340 | 0.0 | 0.0 | 0.00 | 0.78 | 0.00 | 92 | 1010.9 |
| 20260506234512 | 48 | 340 | 0.0 | 0.0 | 0.00 | 0.00 | 0.00 | 92 | 1009.7 |
| 20260506234206 | 48 | 340 | 0.0 | 0.0 | 0.00 | 0.78 | 0.00 | 92 | 1010.8 |
| 20260506233706 | 48 | 340 | 0.0 | 0.0 | 0.00 | 0.78 | 0.00 | 92 | 1010.8 |
| 20260506233512 | 48 | 340 | 0.0 | 0.0 | 0.00 | 0.00 | 0.00 | 92 | 1009.6 |
| 20260506233205 | 48 | 340 | 0.0 | 0.0 | 0.00 | 0.78 | 0.00 | 92 | 1010.8 |
| 20260506232706 | 48 | 340 | 0.0 | 0.0 | 0.00 | 0.78 | 0.00 | 92 | 1010.8 |
| 20260506232205 | 48 | 340 | 0.0 | 0.0 | 0.00 | 0.78 | 0.00 | 92 | 1010.8 |
| 20260506231511 | 48 | 340 | 0.0 | 0.0 | 0.00 | 0.00 | 0.00 | 92 | 1009.6 |
| 20260506231205 | 48 | 340 | 0.0 | 0.0 | 0.00 | 0.78 | 0.00 | 92 | 1010.9 |
| 20260506230512 | 48 | 340 | 0.0 | 0.0 | 0.00 | 0.00 | 0.00 | 91 | 1009.6 |
| 20260506230205 | 48 | 340 | 0.0 | 0.0 | 0.00 | 0.78 | 0.00 | 91 | 1010.8 |
| 20260506225705 | 48 | 340 | 0.0 | 0.0 | 0.00 | 0.78 | 0.00 | 91 | 1010.8 |
| 20260506224705 | 48 | 340 | 0.0 | 0.0 | 0.00 | 0.78 | 0.00 | 91 | 1010.7 |
| 20260506224511 | 48 | 340 | 0.0 | 0.0 | 0.00 | 0.00 | 0.00 | 91 | 1009.5 |
| 20260506224206 | 48 | 340 | 0.0 | 0.0 | 0.00 | 0.78 | 0.00 | 91 | 1010.6 |
| 20260506223705 | 48 | 340 | 0.0 | 0.0 | 0.00 | 0.78 | 0.00 | 91 | 1010.7 |
| 20260506223512 | 48 | 340 | 0.0 | 0.0 | 0.00 | 0.00 | 0.00 | 91 | 1009.5 |
| 20260506223205 | 48 | 340 | 0.0 | 0.0 | 0.00 | 0.78 | 0.00 | 91 | 1010.6 |
| 20260506222705 | 48 | 340 | 0.0 | 0.0 | 0.00 | 0.78 | 0.00 | 91 | 1010.6 |
| 20260506222511 | 48 | 340 | 0.0 | 0.0 | 0.00 | 0.00 | 0.00 | 91 | 1009.4 |
| 20260506222205 | 48 | 340 | 0.0 | 0.0 | 0.00 | 0.78 | 0.00 | 91 | 1010.6 |
| 20260506221706 | 48 | 340 | 0.0 | 0.0 | 0.00 | 0.78 | 0.00 | 91 | 1010.6 |
| 20260506221512 | 48 | 340 | 0.0 | 0.0 | 0.00 | 0.00 | 0.00 | 91 | 1009.5 |
| 20260506221205 | 48 | 340 | 0.0 | 0.0 | 0.00 | 0.78 | 0.00 | 91 | 1010.6 |
| 20260506220705 | 48 | 340 | 0.0 | 0.0 | 0.00 | 0.78 | 0.00 | 91 | 1010.6 |
| 20260506220206 | 48 | 340 | 0.0 | 0.0 | 0.00 | 0.78 | 0.00 | 91 | 1010.6 |
| 20260506215705 | 48 | 349 | 0.0 | 0.0 | 0.00 | 0.78 | 0.78 | 91 | 1010.6 |
| 20260506215512 | 48 | 340 | 0.0 | 0.0 | 0.00 | 0.78 | 0.78 | 91 | 1009.5 |
| 20260506215205 | 48 | 350 | 0.0 | 0.0 | 0.00 | 0.78 | 0.78 | 91 | 1010.6 |
| 20260506214705 | 48 | 350 | 0.0 | 0.0 | 0.00 | 0.78 | 0.78 | 91 | 1010.6 |
| 20260506214512 | 48 | 350 | 0.0 | 0.0 | 0.00 | 0.78 | 0.78 | 91 | 1009.4 |
| 20260506214206 | 48 | 350 | 0.0 | 0.0 | 0.00 | 0.78 | 0.78 | 91 | 1010.6 |
| 20260506213705 | 48 | 350 | 0.0 | 0.0 | 0.00 | 0.78 | 0.78 | 91 | 1010.6 |
| 20260506213513 | 48 | 350 | 0.0 | 0.0 | 0.00 | 0.78 | 0.78 | 91 | 1009.3 |
| 20260506213205 | 48 | 350 | 0.0 | 0.0 | 0.00 | 0.78 | 0.78 | 91 | 1010.5 |
| 20260506212705 | 48 | 350 | 0.0 | 0.0 | 0.00 | 0.78 | 0.78 | 91 | 1010.5 |
| 20260506212512 | 48 | 350 | 0.0 | 0.0 | 0.00 | 0.78 | 0.78 | 91 | 1009.3 |
| 20260506212205 | 48 | 350 | 0.0 | 0.0 | 0.00 | 0.78 | 0.78 | 91 | 1010.4 |
| 20260506211705 | 48 | 350 | 0.0 | 0.0 | 0.00 | 0.78 | 0.78 | 91 | 1010.4 |
| 20260506211512 | 48 | 350 | 0.0 | 0.0 | 0.00 | 0.78 | 0.78 | 91 | 1009.2 |
| 20260506211206 | 48 | 350 | 0.0 | 0.0 | 0.00 | 0.78 | 0.78 | 91 | 1010.4 |
| 20260506210705 | 48 | 350 | 0.0 | 0.0 | 0.00 | 0.78 | 0.78 | 91 | 1010.4 |
| 20260506210512 | 48 | 350 | 0.0 | 0.0 | 0.00 | 0.78 | 0.78 | 91 | 1009.2 |
| 20260506210205 | 48 | 350 | 0.0 | 0.0 | 0.00 | 0.78 | 0.78 | 91 | 1010.4 |
| 20260506205704 | 48 | 350 | 0.0 | 0.0 | 0.00 | 0.78 | 0.78 | 91 | 1010.3 |
| 20260506205512 | 48 | 350 | 0.0 | 0.0 | 0.00 | 0.78 | 0.78 | 91 | 1009.1 |
| 20260506205205 | 48 | 350 | 0.0 | 0.0 | 0.00 | 0.78 | 0.78 | 91 | 1010.3 |
| 20260506204705 | 48 | 350 | 0.0 | 0.0 | 0.00 | 0.78 | 0.78 | 91 | 1010.2 |
| 20260506204512 | 48 | 350 | 0.0 | 0.0 | 0.00 | 0.78 | 0.78 | 91 | 1009.1 |
| 20260506204206 | 48 | 350 | 0.0 | 0.0 | 0.00 | 0.78 | 0.78 | 91 | 1010.2 |
| 20260506203705 | 48 | 350 | 0.0 | 0.0 | 0.00 | 0.78 | 0.78 | 91 | 1010.2 |
| 20260506203512 | 48 | 350 | 0.0 | 0.0 | 0.00 | 0.78 | 0.78 | 91 | 1009.1 |
| 20260506202705 | 48 | 350 | 0.0 | 0.0 | 0.00 | 0.78 | 0.78 | 90 | 1010.2 |
| 20260506202512 | 48 | 350 | 0.0 | 0.0 | 0.00 | 0.78 | 0.78 | 90 | 1009.0 |
| 20260506202204 | 48 | 350 | 0.0 | 0.0 | 0.00 | 0.78 | 0.78 | 90 | 1010.1 |
| 20260506201705 | 48 | 350 | 0.0 | 0.0 | 0.00 | 0.78 | 0.78 | 90 | 1010.1 |
| 20260506201205 | 48 | 350 | 0.0 | 0.0 | 0.00 | 0.78 | 0.78 | 90 | 1010.1 |
| 20260506200705 | 48 | 350 | 0.0 | 0.0 | 0.00 | 0.78 | 0.78 | 90 | 1010.1 |
| 20260506200511 | 48 | 350 | 0.0 | 0.0 | 0.00 | 0.78 | 0.78 | 90 | 1008.8 |
| 20260506200205 | 48 | 350 | 0.0 | 0.0 | 0.00 | 0.78 | 0.78 | 90 | 1010.1 |
| 20260506195205 | 48 | 350 | 0.0 | 0.0 | 0.00 | 0.78 | 0.78 | 90 | 1010.0 |
| 20260506194511 | 49 | 350 | 0.0 | 0.0 | 0.00 | 0.78 | 0.78 | 90 | 1008.8 |
| 20260506193705 | 49 | 350 | 0.0 | 0.0 | 0.00 | 0.78 | 0.78 | 90 | 1010.0 |
| 20260506192705 | 49 | 350 | 0.0 | 0.0 | 0.00 | 0.78 | 0.78 | 90 | 1009.9 |
| 20260506192511 | 49 | 350 | 0.0 | 0.0 | 0.00 | 0.78 | 0.78 | 90 | 1008.6 |
| 20260506192205 | 49 | 340 | 0.0 | 0.0 | 0.00 | 0.78 | 0.78 | 90 | 1009.8 |
| 20260506191705 | 49 | 318 | 0.0 | 0.0 | 0.00 | 0.78 | 0.78 | 90 | 1009.8 |
| 20260506191511 | 49 | 317 | 0.0 | 0.0 | 0.00 | 0.78 | 0.78 | 90 | 1008.6 |
| 20260506191205 | 49 | 340 | 0.0 | 0.0 | 0.00 | 0.78 | 0.78 | 90 | 1009.7 |
| 20260506190205 | 49 | 305 | 0.0 | 0.0 | 0.00 | 0.78 | 0.78 | 90 | 1009.6 |
| 20260506185705 | 49 | 321 | 0.0 | 0.0 | 0.00 | 0.78 | 0.78 | 89 | 1009.6 |
| 20260506185512 | 49 | 321 | 0.0 | 0.0 | 0.00 | 0.78 | 0.78 | 89 | 1008.4 |
| 20260506185205 | 49 | 291 | 0.0 | 0.0 | 0.00 | 0.78 | 0.78 | 89 | 1009.5 |
| 20260506184705 | 49 | 15 | 0.0 | 0.0 | 0.00 | 0.78 | 0.78 | 89 | 1009.4 |
| 20260506184204 | 49 | 15 | 0.0 | 0.0 | 0.00 | 0.78 | 0.78 | 89 | 1009.4 |
| 20260506183705 | 49 | 354 | 0.0 | 0.0 | 0.00 | 0.78 | 0.78 | 89 | 1009.4 |
| 20260506183511 | 49 | 354 | 0.0 | 0.0 | 0.00 | 0.78 | 0.78 | 89 | 1008.3 |
| 20260506183205 | 49 | 0 | 0.0 | 0.0 | 0.00 | 0.78 | 0.78 | 89 | 1009.3 |
| 20260506182704 | 49 | 340 | 0.0 | 0.0 | 0.00 | 0.78 | 0.78 | 89 | 1009.2 |
| 20260506182512 | 49 | 340 | 0.0 | 0.0 | 0.00 | 0.78 | 0.78 | 89 | 1008.0 |
| 20260506181704 | 49 | 0 | 0.0 | 0.0 | 0.00 | 0.78 | 0.78 | 89 | 1009.1 |
| 20260506181512 | 49 | 22 | 0.0 | 0.0 | 0.00 | 0.78 | 0.78 | 89 | 1007.9 |
| 20260506181204 | 49 | 9 | 0.0 | 0.0 | 0.00 | 0.78 | 0.78 | 89 | 1009.1 |
| 20260506180705 | 49 | 31 | 0.0 | 0.0 | 0.00 | 0.78 | 0.78 | 89 | 1009.1 |
| 20260506180512 | 49 | 6 | 0.0 | 0.0 | 0.00 | 0.78 | 0.78 | 89 | 1007.9 |
| 20260506180205 | 49 | 358 | 0.0 | 2.0 | 0.00 | 0.78 | 0.78 | 89 | 1009.1 |
| 20260506175705 | 50 | 323 | 0.0 | 3.0 | 0.00 | 0.78 | 0.78 | 89 | 1009.0 |
| 20260506175205 | 50 | 318 | 1.0 | 3.0 | 0.00 | 0.78 | 0.78 | 90 | 1009.0 |
| 20260506174705 | 50 | 315 | 0.0 | 2.0 | 0.00 | 0.78 | 0.78 | 89 | 1008.9 |
| 20260506174511 | 49 | 11 | 0.0 | 2.0 | 0.00 | 0.78 | 0.78 | 89 | 1007.8 |
| 20260506174205 | 50 | 5 | 0.0 | 8.0 | 0.00 | 0.78 | 0.78 | 89 | 1008.9 |
| 20260506173705 | 50 | 1 | 0.0 | 3.0 | 0.01 | 0.78 | 0.78 | 89 | 1008.9 |
| 20260506173511 | 50 | 83 | 0.0 | 0.0 | 0.01 | 0.78 | 0.78 | 90 | 1007.7 |
| 20260506173205 | 50 | 5 | 0.0 | 0.0 | 0.01 | 0.78 | 0.78 | 90 | 1008.8 |
| 20260506172205 | 49 | 355 | 0.0 | 0.0 | 0.01 | 0.78 | 0.78 | 90 | 1008.7 |
| 20260506171511 | 49 | 350 | 0.0 | 0.0 | 0.01 | 0.78 | 0.78 | 89 | 1007.6 |
| 20260506170705 | 49 | 20 | 0.0 | 2.0 | 0.01 | 0.78 | 0.78 | 89 | 1008.7 |
| 20260506170511 | 49 | 19 | 0.0 | 5.0 | 0.01 | 0.78 | 0.78 | 89 | 1007.6 |
| 20260506170205 | 49 | 106 | 1.0 | 5.0 | 0.01 | 0.78 | 0.78 | 90 | 1008.7 |
| 20260506165705 | 49 | 34 | 1.0 | 3.0 | 0.01 | 0.78 | 0.78 | 90 | 1008.7 |
| 20260506165511 | 49 | 25 | 1.0 | 3.0 | 0.01 | 0.78 | 0.78 | 90 | 1007.6 |
| 20260506164705 | 49 | 354 | 0.0 | 0.0 | 0.02 | 0.78 | 0.78 | 90 | 1008.7 |
| 20260506164512 | 49 | 62 | 0.0 | 0.0 | 0.02 | 0.78 | 0.78 | 90 | 1007.6 |
| 20260506164205 | 49 | 20 | 0.0 | 0.0 | 0.02 | 0.78 | 0.78 | 90 | 1008.7 |
| 20260506163704 | 49 | 4 | 0.0 | 5.0 | 0.01 | 0.77 | 0.77 | 90 | 1008.7 |
| 20260506163512 | 49 | 4 | 1.0 | 5.0 | 0.01 | 0.77 | 0.77 | 90 | 1007.6 |
| 20260506163205 | 49 | 306 | 1.0 | 3.0 | 0.01 | 0.77 | 0.77 | 90 | 1008.7 |
| 20260506162705 | 49 | 10 | 0.0 | 2.0 | 0.01 | 0.77 | 0.77 | 90 | 1008.6 |
| 20260506162511 | 49 | 57 | 0.0 | 4.0 | 0.01 | 0.77 | 0.77 | 90 | 1007.5 |
| 20260506162205 | 49 | 355 | 1.0 | 3.0 | 0.01 | 0.77 | 0.77 | 91 | 1008.7 |
| 20260506161705 | 49 | 302 | 0.0 | 0.0 | 0.02 | 0.77 | 0.77 | 91 | 1008.7 |
| 20260506161511 | 49 | 19 | 0.0 | 0.0 | 0.02 | 0.77 | 0.77 | 91 | 1007.6 |
| 20260506160704 | 49 | 8 | 0.0 | 0.0 | 0.02 | 0.77 | 0.77 | 91 | 1008.7 |
| 20260506160511 | 49 | 340 | 0.0 | 0.0 | 0.02 | 0.77 | 0.77 | 91 | 1007.5 |
| 20260506155705 | 49 | 358 | 0.0 | 1.0 | 0.02 | 0.77 | 0.77 | 91 | 1008.7 |
| 20260506155511 | 49 | 13 | 0.0 | 1.0 | 0.02 | 0.77 | 0.77 | 91 | 1007.5 |
| 20260506155205 | 49 | 6 | 0.0 | 5.0 | 0.02 | 0.77 | 0.77 | 91 | 1008.6 |
| 20260506154705 | 49 | 12 | 0.0 | 0.0 | 0.02 | 0.76 | 0.76 | 91 | 1008.7 |
| 20260506154511 | 49 | 356 | 0.0 | 0.0 | 0.02 | 0.76 | 0.76 | 91 | 1007.5 |
| 20260506154205 | 49 | 326 | 0.0 | 0.0 | 0.02 | 0.76 | 0.76 | 91 | 1008.7 |
| 20260506153511 | 49 | 354 | 0.0 | 0.0 | 0.02 | 0.76 | 0.76 | 91 | 1007.6 |
| 20260506153205 | 49 | 350 | 0.0 | 0.0 | 0.02 | 0.76 | 0.76 | 91 | 1008.8 |
| 20260506152511 | 49 | 26 | 0.0 | 0.0 | 0.02 | 0.76 | 0.76 | 91 | 1007.7 |
| 20260506151705 | 48 | 352 | 0.0 | 0.0 | 0.02 | 0.76 | 0.76 | 90 | 1008.8 |
| 20260506151511 | 48 | 350 | 0.0 | 2.0 | 0.02 | 0.76 | 0.76 | 90 | 1007.7 |
| 20260506151205 | 48 | 24 | 0.0 | 2.0 | 0.02 | 0.76 | 0.76 | 90 | 1008.8 |
| 20260506150511 | 48 | 67 | 1.0 | 5.0 | 0.02 | 0.76 | 0.76 | 90 | 1007.7 |
| 20260506150205 | 48 | 99 | 1.0 | 3.0 | 0.02 | 0.76 | 0.76 | 89 | 1008.9 |
| 20260506145705 | 48 | 335 | 1.0 | 6.0 | 0.03 | 0.76 | 0.76 | 89 | 1008.7 |
| 20260506145511 | 48 | 94 | 1.0 | 4.0 | 0.03 | 0.76 | 0.76 | 89 | 1007.7 |
| 20260506145205 | 48 | 15 | 1.0 | 7.0 | 0.02 | 0.75 | 0.75 | 89 | 1008.8 |
| 20260506144511 | 48 | 20 | 0.0 | 3.0 | 0.03 | 0.75 | 0.75 | 89 | 1007.6 |
| 20260506144205 | 48 | 20 | 1.0 | 3.0 | 0.03 | 0.75 | 0.75 | 89 | 1008.7 |
| 20260506143511 | 48 | 13 | 0.0 | 0.0 | 0.03 | 0.74 | 0.74 | 90 | 1007.6 |
| 20260506143204 | 48 | 0 | 0.0 | 0.0 | 0.03 | 0.74 | 0.74 | 90 | 1008.7 |
| 20260506142511 | 48 | 34 | 0.0 | 3.0 | 0.04 | 0.74 | 0.74 | 90 | 1007.6 |
| 20260506142205 | 48 | 15 | 1.0 | 8.0 | 0.05 | 0.74 | 0.74 | 90 | 1008.7 |
| 20260506141704 | 48 | 22 | 0.0 | 10.0 | 0.06 | 0.74 | 0.74 | 91 | 1008.7 |
| 20260506141511 | 48 | 61 | 1.0 | 10.0 | 0.05 | 0.73 | 0.73 | 91 | 1007.5 |
| 20260506141204 | 48 | 12 | 1.0 | 8.0 | 0.06 | 0.73 | 0.73 | 91 | 1008.7 |
| 20260506140704 | 48 | 36 | 0.0 | 0.0 | 0.06 | 0.73 | 0.73 | 91 | 1008.7 |
| 20260506140511 | 48 | 340 | 0.0 | 0.0 | 0.06 | 0.73 | 0.73 | 91 | 1007.4 |
| 20260506140204 | 48 | 321 | 0.0 | 3.0 | 0.06 | 0.73 | 0.73 | 91 | 1008.6 |
| 20260506135704 | 48 | 312 | 0.0 | 3.0 | 0.06 | 0.72 | 0.72 | 91 | 1008.6 |
| 20260506135511 | 48 | 310 | 0.0 | 2.0 | 0.06 | 0.72 | 0.72 | 91 | 1007.4 |
| 20260506134704 | 48 | 54 | 1.0 | 5.0 | 0.07 | 0.72 | 0.72 | 91 | 1008.4 |
| 20260506134511 | 48 | 345 | 1.0 | 5.0 | 0.06 | 0.72 | 0.72 | 91 | 1007.3 |
| 20260506134204 | 48 | 6 | 1.0 | 6.0 | 0.07 | 0.72 | 0.72 | 91 | 1008.5 |
| 20260506133511 | 48 | 44 | 0.0 | 0.0 | 0.06 | 0.71 | 0.71 | 91 | 1007.3 |
| 20260506132704 | 48 | 0 | 2.0 | 10.0 | 0.06 | 0.70 | 0.70 | 91 | 1008.5 |
| 20260506132511 | 49 | 2 | 2.0 | 10.0 | 0.07 | 0.70 | 0.70 | 91 | 1007.3 |
| 20260506132204 | 49 | 354 | 1.0 | 5.0 | 0.06 | 0.69 | 0.69 | 91 | 1008.4 |
| 20260506130704 | 49 | 260 | 0.0 | 2.0 | 0.06 | 0.68 | 0.68 | 92 | 1008.4 |
| 20260506130511 | 49 | 3 | 0.0 | 2.0 | 0.06 | 0.67 | 0.67 | 92 | 1007.2 |
| 20260506130204 | 49 | 340 | 0.0 | 1.0 | 0.06 | 0.67 | 0.67 | 92 | 1008.3 |
| 20260506125704 | 49 | 333 | 0.0 | 1.0 | 0.06 | 0.66 | 0.66 | 92 | 1008.3 |
| 20260506125204 | 49 | 311 | 0.0 | 0.0 | 0.06 | 0.66 | 0.66 | 91 | 1008.2 |
| 20260506124704 | 49 | 15 | 1.0 | 6.0 | 0.06 | 0.65 | 0.65 | 91 | 1008.3 |
| 20260506124511 | 49 | 38 | 1.0 | 6.0 | 0.06 | 0.65 | 0.65 | 91 | 1007.1 |
| 20260506124204 | 49 | 31 | 2.0 | 5.0 | 0.06 | 0.65 | 0.65 | 91 | 1008.2 |
| 20260506123704 | 49 | 6 | 1.0 | 3.0 | 0.06 | 0.65 | 0.65 | 91 | 1008.2 |
| 20260506123511 | 49 | 44 | 1.0 | 3.0 | 0.06 | 0.65 | 0.65 | 91 | 1007.1 |
| 20260506123204 | 49 | 7 | 0.0 | 0.0 | 0.06 | 0.64 | 0.64 | 92 | 1008.2 |
| 20260506122704 | 49 | 2 | 0.0 | 0.0 | 0.07 | 0.64 | 0.64 | 92 | 1008.2 |
| 20260506122511 | 49 | 350 | 0.0 | 0.0 | 0.06 | 0.63 | 0.63 | 92 | 1007.0 |
| 20260506122204 | 49 | 299 | 0.0 | 0.0 | 0.07 | 0.63 | 0.63 | 92 | 1008.1 |
| 20260506121705 | 49 | 2 | 0.0 | 0.0 | 0.08 | 0.63 | 0.63 | 92 | 1008.2 |
| 20260506121511 | 49 | 3 | 0.0 | 0.0 | 0.07 | 0.62 | 0.62 | 92 | 1007.1 |
| 20260506120704 | 49 | 2 | 0.0 | 0.0 | 0.09 | 0.61 | 0.61 | 92 | 1008.2 |
| 20260506120511 | 49 | 12 | 0.0 | 0.0 | 0.09 | 0.61 | 0.61 | 92 | 1007.1 |
| 20260506120204 | 49 | 352 | 0.0 | 0.0 | 0.09 | 0.61 | 0.61 | 92 | 1008.1 |
| 20260506115704 | 49 | 358 | 0.0 | 2.0 | 0.09 | 0.61 | 0.61 | 92 | 1008.1 |
| 20260506115511 | 49 | 358 | 0.0 | 2.0 | 0.09 | 0.61 | 0.61 | 92 | 1007.0 |
| 20260506115204 | 49 | 35 | 1.0 | 3.0 | 0.09 | 0.60 | 0.60 | 91 | 1008.1 |
| 20260506113704 | 48 | 5 | 0.0 | 2.0 | 0.10 | 0.58 | 0.58 | 92 | 1008.0 |
| 20260506113204 | 48 | 352 | 1.0 | 5.0 | 0.10 | 0.57 | 0.57 | 92 | 1008.0 |
| 20260506112512 | 48 | 40 | 0.0 | 2.0 | 0.10 | 0.57 | 0.57 | 92 | 1006.8 |
| 20260506112205 | 48 | 10 | 0.0 | 6.0 | 0.10 | 0.56 | 0.56 | 92 | 1008.0 |
| 20260506111704 | 48 | 340 | 0.0 | 5.0 | 0.10 | 0.55 | 0.55 | 91 | 1008.0 |
| 20260506111204 | 48 | 8 | 2.0 | 5.0 | 0.10 | 0.54 | 0.54 | 92 | 1007.9 |
| 20260506110705 | 48 | 357 | 0.0 | 0.0 | 0.09 | 0.53 | 0.53 | 92 | 1007.9 |
| 20260506110513 | 48 | 269 | 0.0 | 1.0 | 0.09 | 0.53 | 0.53 | 92 | 1006.6 |
| 20260506110204 | 48 | 350 | 0.0 | 3.0 | 0.09 | 0.52 | 0.52 | 92 | 1007.8 |
| 20260506105704 | 48 | 20 | 0.0 | 0.0 | 0.09 | 0.51 | 0.51 | 92 | 1007.9 |
| 20260506105512 | 48 | 11 | 0.0 | 0.0 | 0.09 | 0.51 | 0.51 | 92 | 1006.7 |
| 20260506104705 | 48 | 13 | 0.0 | 1.0 | 0.07 | 0.50 | 0.50 | 92 | 1007.8 |
| 20260506104512 | 48 | 28 | 0.0 | 1.0 | 0.07 | 0.50 | 0.50 | 92 | 1006.7 |
| 20260506104204 | 48 | 3 | 0.0 | 0.0 | 0.07 | 0.49 | 0.49 | 92 | 1007.8 |
| 20260506103704 | 48 | 20 | 0.0 | 0.0 | 0.06 | 0.48 | 0.48 | 92 | 1007.8 |
| 20260506103512 | 48 | 17 | 0.0 | 0.0 | 0.06 | 0.48 | 0.48 | 92 | 1006.6 |
| 20260506103204 | 48 | 7 | 0.0 | 0.0 | 0.06 | 0.47 | 0.47 | 92 | 1007.8 |
| 20260506102705 | 48 | 6 | 0.0 | 0.0 | 0.06 | 0.46 | 0.46 | 92 | 1007.8 |
| 20260506102512 | 48 | 40 | 0.0 | 0.0 | 0.06 | 0.46 | 0.46 | 92 | 1006.6 |
| 20260506102205 | 48 | 78 | 0.0 | 0.0 | 0.05 | 0.46 | 0.46 | 92 | 1007.8 |
| 20260506101512 | 48 | 40 | 0.0 | 1.0 | 0.04 | 0.45 | 0.45 | 92 | 1006.5 |
| 20260506101204 | 47 | 59 | 0.0 | 5.0 | 0.03 | 0.44 | 0.44 | 92 | 1007.6 |
| 20260506095512 | 47 | 13 | 0.0 | 1.0 | 0.02 | 0.43 | 0.43 | 92 | 1006.3 |
| 20260506095204 | 48 | 345 | 0.0 | 0.0 | 0.02 | 0.43 | 0.43 | 92 | 1007.5 |
| 20260506094705 | 48 | 288 | 0.0 | 0.0 | 0.02 | 0.43 | 0.43 | 92 | 1007.5 |
| 20260506094204 | 48 | 343 | 0.0 | 0.0 | 0.02 | 0.42 | 0.42 | 93 | 1007.4 |
| 20260506093704 | 48 | 318 | 0.0 | 5.0 | 0.02 | 0.42 | 0.42 | 92 | 1007.3 |
| 20260506093512 | 48 | 289 | 0.0 | 5.0 | 0.02 | 0.42 | 0.42 | 92 | 1006.2 |
| 20260506093204 | 47 | 336 | 0.0 | 0.0 | 0.02 | 0.42 | 0.42 | 92 | 1007.3 |
| 20260506092704 | 47 | 338 | 0.0 | 0.0 | 0.02 | 0.41 | 0.41 | 92 | 1007.3 |
| 20260506092512 | 47 | 360 | 0.0 | 0.0 | 0.02 | 0.41 | 0.41 | 92 | 1006.2 |
| 20260506092204 | 47 | 356 | 0.0 | 0.0 | 0.02 | 0.41 | 0.41 | 92 | 1007.3 |
| 20260506091512 | 47 | 358 | 0.0 | 0.0 | 0.02 | 0.41 | 0.41 | 92 | 1006.1 |
| 20260506091204 | 47 | 349 | 0.0 | 1.0 | 0.02 | 0.41 | 0.41 | 92 | 1007.3 |
| 20260506090704 | 47 | 350 | 1.0 | 5.0 | 0.02 | 0.41 | 0.41 | 91 | 1007.4 |
| 20260506090512 | 47 | 350 | 1.0 | 4.0 | 0.02 | 0.41 | 0.41 | 91 | 1006.2 |
| 20260506090204 | 47 | 3 | 1.0 | 5.0 | 0.02 | 0.41 | 0.41 | 91 | 1007.4 |
| 20260506085704 | 46 | 353 | 0.0 | 0.0 | 0.02 | 0.41 | 0.41 | 91 | 1007.3 |
| 20260506085512 | 46 | 20 | 0.0 | 0.0 | 0.02 | 0.40 | 0.40 | 91 | 1006.2 |
| 20260506085204 | 46 | 355 | 0.0 | 0.0 | 0.02 | 0.40 | 0.40 | 91 | 1007.4 |
| 20260506084704 | 46 | 0 | 0.0 | 0.0 | 0.02 | 0.40 | 0.40 | 91 | 1007.3 |
| 20260506084512 | 46 | 345 | 0.0 | 0.0 | 0.02 | 0.40 | 0.40 | 91 | 1006.1 |
| 20260506084204 | 46 | 359 | 0.0 | 0.0 | 0.03 | 0.40 | 0.40 | 91 | 1007.4 |
| 20260506083704 | 46 | 30 | 0.0 | 0.0 | 0.03 | 0.40 | 0.40 | 91 | 1007.3 |
| 20260506083512 | 46 | 28 | 0.0 | 0.0 | 0.04 | 0.40 | 0.40 | 91 | 1006.2 |
| 20260506082704 | 46 | 4 | 0.0 | 3.0 | 0.03 | 0.39 | 0.39 | 91 | 1007.4 |
| 20260506082204 | 46 | 86 | 1.0 | 5.0 | 0.03 | 0.39 | 0.39 | 90 | 1007.4 |
| 20260506081704 | 46 | 21 | 0.0 | 1.0 | 0.04 | 0.39 | 0.39 | 91 | 1007.3 |
| 20260506081512 | 46 | 12 | 0.0 | 0.0 | 0.04 | 0.39 | 0.39 | 91 | 1006.1 |
| 20260506081204 | 46 | 37 | 0.0 | 0.0 | 0.03 | 0.39 | 0.39 | 90 | 1007.3 |
| 20260506080705 | 46 | 53 | 2.0 | 6.0 | 0.03 | 0.39 | 0.39 | 90 | 1007.3 |
| 20260506080512 | 46 | 29 | 0.0 | 0.0 | 0.03 | 0.39 | 0.39 | 90 | 1006.1 |
| 20260506073512 | 45 | 68 | 2.0 | 8.0 | 0.02 | 0.36 | 0.36 | 91 | 1006.0 |
| 20260506073204 | 45 | 47 | 2.0 | 7.0 | 0.02 | 0.37 | 0.36 | 91 | 1007.2 |
| 20260506072704 | 45 | 68 | 1.0 | 5.0 | 0.03 | 0.37 | 0.36 | 91 | 1007.2 |
| 20260506072511 | 45 | 76 | 0.0 | 1.0 | 0.03 | 0.36 | 0.36 | 91 | 1006.0 |
| 20260506072204 | 45 | 33 | 0.0 | 0.0 | 0.03 | 0.37 | 0.36 | 91 | 1007.2 |
| 20260506071704 | 45 | 33 | 0.0 | 0.0 | 0.02 | 0.36 | 0.35 | 91 | 1007.2 |
| 20260506071511 | 45 | 2 | 0.0 | 0.0 | 0.03 | 0.35 | 0.35 | 91 | 1006.0 |
| 20260506070704 | 45 | 51 | 0.0 | 0.0 | 0.04 | 0.36 | 0.35 | 91 | 1007.1 |
| 20260506070512 | 45 | 356 | 0.0 | 0.0 | 0.04 | 0.35 | 0.35 | 91 | 1005.9 |
| 20260506070204 | 45 | 38 | 0.0 | 0.0 | 0.04 | 0.36 | 0.35 | 91 | 1007.1 |
| 20260506062511 | 45 | 50 | 0.0 | 0.0 | 0.06 | 0.33 | 0.33 | 91 | 1005.7 |
| 20260506062204 | 45 | 74 | 0.0 | 3.0 | 0.06 | 0.34 | 0.33 | 91 | 1006.9 |
| 20260506061704 | 45 | 48 | 3.0 | 13.0 | 0.06 | 0.34 | 0.33 | 91 | 1006.8 |
| 20260506061511 | 44 | 69 | 3.0 | 10.0 | 0.06 | 0.32 | 0.32 | 91 | 1005.7 |
| 20260506061204 | 45 | 47 | 3.0 | 10.0 | 0.06 | 0.33 | 0.32 | 91 | 1006.8 |
| 20260506060704 | 45 | 63 | 3.0 | 9.0 | 0.06 | 0.32 | 0.31 | 91 | 1006.8 |